Location: Montreal
(45.5000°N, 73.5833°W)
Time: 21:54:54
(UTC-04:00)

ISS - Pass Details

Date: 08 October 2017
Orbit: 400 x 408 km, 51.6° (Epoch: 24 October)

Event Time Altitude Azimuth Distance (km) Brightness Sun altitude
Rises 19:49:26 0° 298° (WNW) 2,328 1.4 -16.3°
Reaches altitude 10° 19:51:36 10° 306° (NW) 1,468 0.0 -16.7°
Maximum altitude 19:54:44 40° 18° (NNE) 618 -3.0 -17.2°
Enters shadow 19:55:14 37° 43° (NE) 654 -3.1 -17.3°
